Date,TemperatureHighF,TemperatureAvgF,TemperatureLowF,DewpointHighF,DewpointAvgF,DewpointLowF,HumidityHigh,HumidityAvg,HumidityLow,PressureMaxIn,PressureMinIn,WindSpeedMaxMPH,WindSpeedAvgMPH,GustSpeedMaxMPH,PrecipitationSumIn
2013-1-1,20.9,16.2,9.0,16.0,11.0,6.0,88,80,63,30.31,30.17,6,1,8,0.00
2013-1-2,29.2,19.0,7.5,18.0,12.0,4.0,89,75,60,30.29,30.17,10,4,17,0.00
2013-1-3,34.1,27.3,17.1,28.0,22.5,12.0,88,82,74,30.41,30.20,9,3,17,0.01
2013-1-4,37.7,25.2,13.6,24.0,18.1,10.0,87,75,57,30.39,30.29,12,4,19,0.00
2013-1-5,39.2,32.3,25.2,34.0,26.7,-99.9,93,82,74,30.29,30.04,10,-6,18,0.01
2013-1-6,38.4,28.6,24.1,33.0,22.0,19.0,82,76,62,30.37,30.03,13,4,18,0.00
2013-1-7,43.1,31.6,21.4,30.0,24.9,18.0,88,77,58,30.37,30.13,16,6,22,0.00
2013-1-8,47.8,37.6,28.5,35.0,29.5,25.0,85,73,59,30.17,30.06,11,4,13,0.00
2013-1-9,51.3,43.0,37.7,35.0,33.0,30.0,81,69,49,30.41,30.11,8,4,14,0.00
2013-1-10,48.6,40.1,36.8,48.0,36.6,-99.9,99,92,65,30.23,0.00,14,-14,14,0.85
2013-1-11,58.5,52.5,47.6,52.0,49.3,47.0,99,89,75,29.82,29.69,17,7,24,0.87
2013-1-12,54.2,40.9,25.1,49.0,34.7,23.0,92,79,62,29.99,29.71,19,5,24,0.01
2013-1-13,24.9,19.1,12.6,23.0,14.4,9.0,91,82,71,30.36,29.95,6,2,13,0.01
2013-1-14,25.0,16.6,10.7,15.0,11.2,8.0,89,80,58,30.52,30.37,5,1,7,0.00
2013-1-15,28.7,19.3,9.5,18.0,13.7,7.0,91,80,59,30.47,30.18,7,1,8,0.00
2013-1-16,39.7,28.6,16.1,28.0,19.6,12.0,91,70,49,30.18,29.97,18,4,23,0.04
2013-1-17,35.9,30.6,25.4,30.0,21.9,16.0,89,71,53,30.47,30.12,13,3,18,0.04
2013-1-18,49.9,41.1,25.9,33.0,26.2,-99.9,80,59,48,30.40,30.03,22,-4,30,0.02
2013-1-19,55.9,46.5,39.2,38.0,33.0,28.0,71,60,50,30.08,29.85,13,7,29,0.00
2013-1-20,38.4,20.4,16.4,27.0,8.6,-99.9,82,65,49,30.37,30.11,10,-19,18,0.00
2013-1-21,15.7,11.3,7.4,10.0,-0.2,-6.0,81,61,42,30.43,30.32,12,5,20,0.00
2013-1-22,15.0,10.6,2.7,4.0,-0.7,-4.0,76,61,49,30.52,30.41,7,2,10,0.00
2013-1-23,36.3,23.8,11.9,20.0,11.8,3.0,77,61,47,30.43,30.16,11,4,19,0.00
2013-1-24,24.0,17.0,9.2,10.0,3.4,-99.9,72,58,48,30.66,30.32,15,-5,19,0.00
2013-1-25,39.5,29.2,23.5,23.0,13.9,-99.9,72,57,44,30.30,30.08,10,-17,19,0.00
2013-1-26,34.1,23.9,12.5,17.0,11.5,7.0,78,60,44,30.43,30.25,8,3,20,0.00
2013-1-27,45.3,33.8,24.9,45.0,30.3,16.0,97,87,65,30.34,29.89,14,5,17,0.27
2013-1-28,58.5,52.8,45.8,56.0,51.8,45.0,98,96,90,29.94,29.81,11,4,16,0.00
2013-1-29,54.9,52.2,42.9,54.0,51.9,42.0,99,98,96,29.50,29.40,5,2,12,1.49
2013-1-30,41.3,30.9,20.3,41.0,27.9,14.0,98,88,72,29.87,29.29,17,6,29,0.20
2013-1-31,24.7,16.6,6.1,20.0,8.9,-3.0,85,72,61,30.38,29.87,17,7,23,0.00
2013-2-1,22.7,12.2,2.4,19.0,3.6,-4.0,89,69,53,30.50,30.22,13,5,20,0.00
2013-2-2,30.9,24.8,20.3,24.0,18.3,15.0,91,76,66,30.21,30.07,10,4,19,0.00
2013-2-3,31.1,26.1,20.8,24.0,18.4,14.0,94,74,51,30.17,30.00,13,4,22,0.00
2013-2-4,40.7,30.7,24.9,28.0,23.2,19.0,84,74,60,30.00,29.80,10,4,20,0.00
2013-2-5,45.2,34.5,23.5,33.0,28.1,20.0,89,78,61,30.11,29.87,13,4,18,0.00
2013-2-6,48.2,36.0,25.1,35.0,27.6,-99.9,96,77,55,30.23,30.03,19,-18,19,0.00
2013-2-7,39.2,37.1,34.1,39.0,35.4,33.0,97,93,81,30.06,29.86,9,3,16,0.51
2013-2-8,33.8,30.7,27.1,33.0,27.2,24.0,96,86,79,30.39,30.07,10,3,15,0.00
2013-2-9,36.7,32.0,27.0,33.0,28.1,24.0,89,85,77,30.38,30.02,13,5,15,0.01
2013-2-10,51.9,44.0,35.9,49.0,40.0,31.0,96,87,56,30.03,29.48,23,8,35,0.61
2013-2-11,42.8,36.7,28.4,32.0,26.3,23.0,87,67,56,30.14,29.66,21,8,36,0.00
2013-2-12,40.7,31.6,24.4,29.0,25.8,23.0,94,80,56,30.17,29.95,6,1,9,0.00
2013-2-13,47.7,38.0,28.9,33.0,29.3,25.0,86,72,51,29.95,29.78,16,3,16,0.00
2013-2-14,44.7,39.4,34.3,33.0,31.2,28.0,82,73,62,30.05,29.75,15,4,21,0.00
2013-2-15,35.7,29.0,22.3,29.0,16.3,12.0,82,61,39,30.28,30.06,13,4,15,0.00
2013-2-16,31.8,23.0,14.0,16.0,12.5,8.0,79,65,47,30.28,30.18,10,3,16,0.00
2013-2-17,41.4,29.1,16.0,27.0,19.3,13.0,87,68,47,30.21,29.89,12,5,18,0.00
2013-2-18,55.3,41.2,27.3,48.0,35.0,21.0,94,79,66,29.89,29.46,20,8,29,0.47
2013-2-19,27.3,21.9,17.8,21.0,12.8,8.0,78,68,58,30.31,29.83,22,8,26,0.00
2013-2-20,22.5,16.2,6.5,14.0,7.8,1.0,81,70,56,30.47,30.30,8,3,18,0.00
2013-2-21,29.3,22.8,16.3,28.0,20.0,13.0,96,89,79,30.38,29.86,24,10,31,0.00
2013-2-22,31.6,28.8,25.3,31.0,25.2,-99.9,97,89,81,30.03,29.79,12,-7,19,0.00
2013-2-23,31.2,24.7,17.8,20.0,18.1,15.0,89,76,63,30.04,29.99,6,2,11,0.00
2013-2-24,40.3,28.9,15.5,25.0,19.2,-99.9,91,71,52,30.14,30.03,7,-9,10,0.03
2013-2-25,41.2,35.1,26.4,34.0,28.9,23.0,90,78,65,30.12,29.80,22,8,30,0.00
2013-2-26,36.9,32.3,30.9,33.0,28.3,-99.9,98,91,74,29.80,29.45,28,-11,35,0.21
2013-2-27,33.3,31.6,30.4,32.0,30.3,29.0,96,95,92,29.85,29.62,10,4,16,0.06
2013-2-28,34.7,32.4,30.5,31.0,30.1,29.0,96,91,83,30.10,29.85,9,3,11,0.01
2013-3-1,31.2,28.3,24.9,29.0,24.6,21.0,96,86,76,30.25,30.07,11,3,17,0.03
2013-3-2,30.9,25.3,16.1,20.0,17.2,13.0,88,72,55,30.28,30.22,13,3,14,0.00
2013-3-3,35.3,24.6,9.2,23.0,14.2,7.0,92,68,37,30.23,30.07,8,2,9,0.00
2013-3-4,38.0,33.5,29.1,30.0,27.7,23.0,91,79,70,30.08,29.83,18,10,24,0.01
2013-3-5,34.4,31.7,29.8,32.0,27.7,23.0,97,86,68,30.12,29.84,12,5,26,0.07
2013-3-6,30.8,27.6,22.4,26.0,22.0,19.0,87,79,73,30.38,30.14,12,3,17,0.00
2013-3-7,39.8,30.4,23.7,29.0,24.7,20.0,88,79,61,30.45,30.35,8,3,12,0.01
2013-3-8,46.6,37.4,27.0,37.0,31.4,25.0,93,79,64,30.44,30.22,11,5,14,0.00
2013-3-9,54.7,45.1,37.3,47.0,38.9,33.0,95,80,65,30.20,29.75,13,6,18,0.71
2013-3-10,54.0,49.9,45.3,51.0,47.7,42.0,98,92,63,29.76,29.57,10,4,19,1.08
2013-3-11,44.3,34.2,31.0,42.0,31.6,26.0,96,90,81,29.95,29.64,14,6,21,0.01
2013-3-12,40.4,32.7,26.0,30.0,25.3,20.0,89,75,62,30.20,29.95,17,6,24,0.00
2013-3-13,38.4,29.9,23.4,20.0,17.6,14.0,80,62,39,30.41,30.20,13,4,20,0.00
2013-3-14,51.0,37.4,25.4,35.0,27.4,18.0,89,68,49,30.39,30.09,19,3,19,0.00
2013-3-15,60.1,45.8,31.2,46.0,38.1,29.0,93,76,57,30.09,29.63,7,3,11,0.00
2013-3-16,49.6,39.3,35.0,45.0,34.6,28.0,97,84,73,30.09,29.61,18,4,20,0.00
2013-3-17,37.9,34.4,30.7,31.0,28.1,25.0,86,78,68,30.15,29.88,18,9,22,0.00
2013-3-18,46.5,35.6,27.9,36.0,30.1,17.0,97,82,48,29.98,29.70,17,6,32,0.03
2013-3-19,41.9,32.3,23.2,18.0,15.7,12.0,72,53,33,30.18,29.96,14,5,19,0.00
2013-3-20,30.9,25.1,18.0,20.0,10.6,5.0,75,55,38,30.27,30.13,16,5,25,0.00
2013-3-21,19.8,17.0,13.4,12.0,9.9,8.0,80,74,61,30.16,30.11,4,1,10,0.00
2013-3-25,35.1,30.3,28.8,27.0,21.9,-99.9,86,78,70,30.18,30.04,9,-29,16,0.05
2013-3-26,40.0,34.2,29.0,27.0,24.6,22.0,84,69,52,30.33,30.18,10,3,16,0.08
2013-3-27,44.1,34.9,25.1,27.0,23.3,21.0,85,64,44,30.39,30.32,7,2,11,0.00
2013-3-28,48.0,38.3,25.0,32.0,26.3,21.0,86,64,40,30.39,30.28,9,3,16,0.00
2013-3-29,58.2,46.9,36.1,37.0,33.5,30.0,80,61,42,30.29,30.20,11,4,13,0.00
2013-3-30,54.9,47.6,39.9,45.0,40.8,35.0,88,77,60,30.20,29.89,18,4,22,0.00
2013-3-31,61.6,50.5,40.4,49.0,41.0,29.0,95,73,42,29.96,29.82,11,4,17,0.00
2013-4-1,45.0,37.0,29.8,29.0,19.5,-99.9,77,53,30,30.26,29.96,13,-7,17,0.00
2013-4-2,47.9,35.0,23.6,22.0,17.7,12.0,81,54,24,30.36,30.26,9,2,13,0.00
2013-4-3,50.3,37.9,24.4,22.0,19.4,17.0,78,51,28,30.45,30.29,14,4,18,0.00
2013-4-4,60.4,47.0,31.7,27.0,24.0,19.0,66,43,26,30.29,30.02,6,2,10,0.00
2013-4-5,61.8,49.8,36.9,33.0,29.9,26.0,82,50,27,30.19,30.02,12,4,13,0.00
2013-4-6,72.4,61.2,48.7,51.0,37.8,28.0,61,44,26,30.02,29.63,25,9,38,0.01
2013-4-7,73.2,61.8,45.3,51.0,44.0,41.0,85,55,36,29.92,29.74,11,3,12,0.00
2013-4-8,74.9,64.9,56.5,61.0,57.7,51.0,93,78,60,29.82,29.61,17,5,26,0.38
2013-4-9,76.7,69.3,61.5,62.0,59.9,58.0,87,73,57,29.82,29.75,20,6,28,0.00
2013-4-10,67.8,52.1,45.5,61.0,50.2,45.0,98,93,79,29.90,29.61,20,7,25,1.90
2013-4-11,49.8,44.9,38.1,49.0,41.2,30.0,98,87,72,29.69,29.60,11,6,19,0.08
2013-4-12,43.7,39.8,37.6,37.0,33.4,31.0,84,78,72,29.96,29.66,16,6,22,0.00
2013-4-13,52.6,44.7,35.1,37.0,32.4,27.0,78,63,46,30.04,29.91,10,5,21,0.00
2013-4-14,76.6,61.4,46.6,56.0,47.0,37.0,85,61,39,29.91,29.54,29,8,35,0.03
2013-4-15,65.0,54.2,44.8,56.0,50.2,43.0,97,86,63,29.95,29.66,23,3,35,0.82
2013-4-16,51.9,46.1,41.2,43.0,39.8,37.0,96,80,60,30.18,29.93,10,4,15,0.60
2013-4-17,54.7,48.5,44.7,54.0,45.2,38.0,98,89,71,30.17,29.73,19,10,28,0.71
2013-4-18,63.4,51.8,38.9,62.0,48.1,-99.9,99,90,76,29.71,29.45,17,-6,33,1.25
2013-4-19,44.5,39.5,35.8,32.0,29.7,28.0,77,69,54,30.06,29.67,23,9,29,0.00
2013-4-20,50.8,40.5,29.2,32.0,28.2,24.0,90,64,37,30.36,30.06,8,3,12,0.00
2013-4-21,59.6,49.6,41.0,43.0,36.7,30.0,70,62,51,30.43,30.25,14,7,20,0.00
2013-4-22,68.5,58.0,45.0,50.0,40.2,36.0,72,53,35,30.26,29.96,15,4,16,0.00
2013-4-23,58.2,45.2,38.0,50.0,42.1,37.0,96,89,73,30.03,29.90,11,3,17,0.67
2013-4-24,51.1,42.6,35.4,37.0,32.3,28.0,96,70,44,30.20,30.00,15,4,19,0.03
2013-4-25,59.3,49.2,40.4,37.0,30.9,-99.9,78,53,35,30.32,30.16,13,-7,20,0.00
2013-4-26,62.8,53.6,45.2,48.0,42.6,35.0,80,67,54,30.32,30.22,14,5,24,0.00
2013-4-27,55.0,51.4,45.6,51.0,48.1,44.0,97,88,76,30.27,29.95,8,3,13,0.06
2013-4-28,65.9,56.5,51.3,54.0,51.9,49.0,98,86,64,29.95,29.84,8,3,13,0.02
2013-4-29,79.3,63.8,47.5,62.0,55.5,46.0,97,76,52,29.89,29.69,17,6,24,0.00
2013-4-30,86.5,73.9,61.0,63.0,57.9,51.0,93,62,30,29.89,29.71,19,6,24,0.00
2013-5-1,84.4,73.8,60.5,59.0,55.4,49.0,83,55,30,30.06,29.89,10,3,18,0.00
2013-5-2,69.2,55.0,42.0,60.0,48.0,40.0,95,78,63,30.16,30.04,14,3,19,0.26
2013-5-3,51.7,43.9,41.5,52.0,43.2,41.0,99,97,95,30.11,29.79,11,3,30,2.73
2013-5-4,55.1,49.9,45.0,54.0,48.7,44.0,99,96,90,30.03,29.78,11,2,14,0.20
2013-5-5,70.2,58.6,47.8,57.0,52.8,47.0,99,82,56,30.02,29.89,17,3,17,0.00
2013-5-6,75.5,64.9,51.7,54.0,49.9,44.0,96,63,34,30.00,29.92,19,4,23,0.00
2013-5-7,80.0,69.7,53.3,56.0,47.4,41.0,94,48,28,30.02,29.94,9,2,15,0.00
2013-5-8,82.3,68.1,50.8,58.0,50.1,43.0,87,57,29,30.01,29.93,6,1,13,0.00
2013-5-9,68.3,62.7,59.6,64.0,60.3,57.0,97,92,79,29.94,29.80,13,3,25,0.72
2013-5-10,60.9,55.8,51.8,60.0,53.4,49.0,98,91,82,29.98,29.79,10,2,14,0.00
2013-5-11,62.4,53.6,43.3,53.0,40.7,29.0,98,66,36,30.13,29.95,18,3,26,0.00
2013-5-12,59.2,47.8,34.7,34.0,30.6,26.0,86,55,31,30.22,30.12,8,2,16,0.00
2013-5-13,71.7,54.6,39.7,44.0,36.5,30.0,72,54,28,30.16,29.98,9,2,17,0.00
2013-5-14,90.5,72.9,55.2,64.0,54.4,43.0,76,54,35,29.97,29.70,17,5,21,0.00
2013-5-15,86.9,78.2,69.7,65.0,59.3,55.0,70,53,45,29.83,29.75,13,5,24,0.00
2013-5-16,84.8,74.2,62.8,66.0,61.1,57.0,87,65,45,29.90,29.80,8,2,14,0.00
2013-5-17,81.5,71.6,58.9,67.0,62.4,56.0,95,75,48,29.95,29.88,9,2,13,0.10
2013-5-18,81.7,72.4,63.7,68.0,64.8,63.0,98,79,55,29.98,29.85,13,2,13,0.01
2013-5-19,90.1,76.5,66.3,74.0,66.9,-99.9,92,75,54,29.87,29.64,14,-7,21,0.00
2013-5-20,82.1,71.2,62.1,70.0,64.1,61.0,97,80,54,29.81,29.64,14,5,27,1.06
2013-5-21,79.8,68.9,62.9,65.0,62.3,61.0,94,81,55,29.70,29.66,13,6,19,0.00
2013-5-27,72.1,66.6,63.8,67.0,64.4,63.0,98,93,80,29.82,29.76,3,1,6,1.92
2013-5-28,77.3,70.0,62.0,72.0,66.8,60.0,99,89,76,29.89,29.67,25,5,31,0.79
2013-5-29,86.1,74.0,61.7,71.0,65.9,61.0,97,77,53,29.92,29.76,16,4,20,0.01
2013-5-30,82.9,72.7,62.4,72.0,66.6,61.0,97,82,63,29.84,29.71,20,6,27,1.48
2013-5-31,74.6,65.4,62.6,72.0,62.0,-99.9,98,93,86,29.86,0.00,10,-18,16,0.15
2013-6-1,74.8,67.5,61.1,69.0,63.2,58.0,98,86,64,29.83,29.67,11,4,22,0.19
2013-6-2,63.1,60.1,55.4,59.0,55.2,52.0,92,84,74,30.02,29.81,7,2,11,0.00
2013-6-3,68.8,60.2,53.5,53.0,51.3,45.0,95,74,49,30.11,29.99,9,2,13,0.00
2013-6-4,73.0,63.9,51.7,58.0,54.9,50.0,97,74,56,30.10,29.98,8,2,12,0.00
2013-6-5,80.1,67.5,55.1,63.0,57.3,-99.9,97,74,52,30.02,29.85,6,-10,7,0.00
2013-6-6,77.5,67.6,60.3,63.0,60.2,58.0,95,78,55,29.87,29.82,7,1,12,0.00
2013-6-7,74.0,63.9,53.8,59.0,55.9,53.0,98,77,54,29.91,29.86,8,1,13,0.00
2013-6-8,81.1,67.9,52.5,59.0,55.4,52.0,98,68,40,29.94,29.87,8,1,14,0.00
2013-6-9,74.2,67.6,63.5,65.0,60.9,57.0,95,80,65,29.91,29.74,10,3,15,0.14
2013-6-10,79.8,69.1,61.4,65.0,62.5,60.0,97,81,58,29.87,29.72,9,1,9,0.00
2013-6-11,88.9,75.4,60.5,75.0,67.5,59.0,97,78,58,29.91,29.78,11,2,14,0.00
2013-6-12,92.7,82.3,71.8,76.0,72.4,68.0,95,74,56,29.87,29.60,18,5,25,0.00
2013-6-13,83.3,74.9,66.9,69.0,60.2,55.0,92,63,38,29.96,29.68,9,3,17,0.00
2013-6-14,82.3,71.0,61.4,67.0,60.6,55.0,88,71,49,30.09,29.91,9,2,10,0.00
2013-6-15,85.5,70.9,66.0,72.0,67.0,64.0,97,88,62,30.04,29.85,11,2,17,0.56
2013-6-16,84.7,74.2,66.1,73.0,69.2,65.0,98,85,66,29.95,29.86,9,2,14,0.00
2013-6-17,87.7,76.0,64.3,73.0,68.0,64.0,99,79,49,29.94,29.86,4,1,9,0.01
2013-6-18,84.4,74.9,65.2,72.0,66.3,59.0,95,76,61,29.98,29.86,7,2,13,0.00
2013-6-19,87.9,72.3,59.5,67.0,60.2,54.0,92,68,39,30.07,29.98,8,2,10,0.00
2013-6-20,92.0,78.7,62.7,72.0,66.1,60.0,95,67,45,30.08,29.98,8,1,12,0.00
2013-6-21,92.1,80.8,72.7,75.0,71.3,67.0,88,74,55,30.03,29.91,18,3,23,0.00
2013-6-22,88.1,78.4,71.1,78.0,72.0,65.0,90,81,66,30.02,29.92,11,4,16,0.00
2013-6-23,87.4,73.6,68.4,74.0,68.1,64.0,97,83,64,29.99,29.87,13,3,18,0.30
2013-6-24,88.9,74.7,68.0,78.0,70.2,66.0,96,86,65,30.04,29.83,14,3,19,0.05
2013-6-25,85.0,75.2,71.0,79.0,70.8,-99.9,98,88,74,29.89,29.77,9,-8,14,0.36
2013-6-26,88.7,77.4,71.1,80.0,74.1,68.0,98,90,73,29.80,29.68,8,2,18,0.12
2013-6-27,93.0,79.5,71.2,75.0,71.4,67.0,99,78,46,29.83,29.74,5,1,9,0.00
2013-6-28,85.8,77.1,67.3,70.0,63.5,57.0,95,66,40,29.79,29.64,14,2,15,0.00
2013-6-29,74.2,68.4,64.6,68.0,63.9,61.0,96,85,75,29.75,29.62,6,2,16,0.50
2013-6-30,65.4,63.1,61.3,63.0,61.7,61.0,98,95,92,29.80,29.75,6,1,7,0.00
2013-7-7,88.0,78.8,78.3,74.0,65.4,-99.9,81,70,61,29.97,0.00,5,-40,8,0.00
2013-7-8,87.1,78.1,72.9,78.0,72.5,69.0,92,83,73,30.02,29.94,9,3,13,0.10
2013-7-9,91.2,82.4,74.9,79.0,75.9,73.0,96,81,64,29.98,29.84,8,2,15,0.02
2013-7-10,88.8,79.7,66.7,77.0,68.9,-99.9,96,75,51,29.98,29.80,10,3,17,0.34
2013-7-11,82.8,71.4,61.0,68.0,61.7,58.0,98,74,46,30.06,29.98,9,2,11,0.00
2013-7-12,85.0,71.4,56.7,64.0,59.6,55.0,97,69,42,30.12,30.03,7,1,11,0.00
2013-7-13,83.9,73.1,58.8,66.0,62.6,58.0,97,72,48,30.10,30.02,7,2,11,0.00
2013-7-14,90.1,77.7,64.0,73.0,68.4,62.0,97,75,52,30.12,30.05,8,2,12,0.00
2013-7-15,90.9,80.9,71.0,77.0,73.6,69.0,94,79,58,30.20,30.12,9,2,11,0.00
2013-7-16,94.1,82.5,73.1,77.0,74.6,72.0,97,78,55,30.26,30.18,6,1,10,0.00
2013-7-17,96.4,84.1,73.2,78.0,75.0,71.0,96,76,52,30.28,30.15,5,1,7,0.00
2013-7-18,95.2,84.9,73.9,79.0,75.3,72.0,95,74,56,30.16,29.94,7,2,11,0.00
2013-7-19,94.4,84.3,76.3,77.0,71.4,-99.9,87,68,47,29.95,29.78,9,-8,16,0.00
2013-7-20,87.3,79.6,70.1,72.0,69.6,66.0,92,73,51,29.88,29.79,9,2,11,0.00
2013-7-21,81.0,72.9,66.9,75.0,70.2,66.0,98,91,80,29.89,29.80,6,1,11,0.50
2013-7-22,87.8,76.5,65.7,76.0,71.5,65.0,99,85,63,29.83,29.73,13,1,19,0.01
2013-7-23,84.6,73.6,64.2,72.0,66.1,62.0,97,78,59,29.90,29.74,7,1,14,0.00
2013-7-24,75.5,67.8,59.7,62.0,58.3,55.0,94,74,50,30.02,29.89,10,3,14,0.00
2013-7-25,82.7,69.4,54.8,66.0,59.8,54.0,97,74,46,30.09,30.02,5,1,8,0.00
2013-7-26,78.7,67.9,60.3,72.0,64.6,59.0,98,89,77,30.03,29.88,9,2,17,0.86
2013-7-27,71.1,62.3,52.4,59.0,53.8,49.0,98,77,48,29.98,29.93,8,2,16,0.01
2013-7-28,76.5,63.6,50.3,57.0,53.0,48.0,96,71,47,30.05,29.95,10,2,13,0.00
2013-7-29,80.5,66.3,52.1,66.0,58.2,52.0,98,78,46,30.14,30.05,4,0,6,0.00
2013-7-30,74.1,68.4,64.4,71.0,66.4,61.0,98,94,76,30.11,29.98,6,1,8,1.08
2013-7-31,76.5,71.1,66.4,70.0,68.3,66.0,99,91,78,30.02,29.97,5,1,6,0.00
2013-8-1,86.4,73.1,63.1,69.0,65.3,61.0,98,79,43,30.04,29.93,4,0,7,0.01
2013-8-2,83.4,73.6,68.5,75.0,67.9,64.0,97,82,61,29.93,29.85,11,3,17,0.00
2013-8-3,83.4,73.2,63.0,69.0,63.9,59.0,97,75,44,30.10,29.91,9,2,10,0.00
2013-8-4,85.1,70.0,57.8,64.0,60.6,56.0,98,75,41,30.16,30.05,5,1,7,0.00
2013-8-5,77.7,69.4,61.5,70.0,64.7,60.0,94,85,73,30.07,29.83,10,2,14,0.00
2013-8-6,88.7,76.2,67.2,77.0,72.1,66.0,99,88,68,29.89,29.78,7,2,12,0.00
2013-8-7,84.2,74.9,70.2,79.0,71.2,-99.9,99,90,81,29.89,29.76,6,-9,10,0.41
2013-8-8,80.6,72.2,63.2,72.0,68.0,63.0,98,87,74,29.96,29.89,8,2,10,0.00
2013-8-9,82.2,71.4,63.4,71.0,64.1,-99.9,97,81,59,30.04,29.95,3,-10,7,0.00
2013-8-10,81.8,71.8,61.3,67.0,62.7,58.0,97,75,50,30.13,30.04,6,1,11,0.00
2013-8-11,86.6,72.5,57.5,70.0,63.6,57.0,98,76,48,30.12,30.02,6,1,8,0.00
2013-8-12,83.1,73.7,65.0,74.0,68.6,63.0,95,84,73,30.04,29.88,5,1,8,0.00
2013-8-13,76.0,66.2,57.7,65.0,59.8,53.0,96,81,59,30.14,29.93,10,2,16,0.00
2013-8-14,74.7,61.6,49.1,61.0,54.2,48.0,98,79,45,30.21,30.11,8,1,8,0.00
2013-8-15,76.3,64.5,55.2,62.0,57.0,53.0,98,79,49,30.17,30.07,6,1,8,0.00
2013-8-16,78.7,66.8,58.2,62.0,58.6,56.0,97,77,47,30.16,30.10,8,2,12,0.00
2013-8-17,80.5,67.0,54.4,63.0,58.7,54.0,99,77,47,30.19,30.11,13,1,13,0.00
2013-8-18,84.4,69.3,55.0,68.0,60.9,54.0,98,77,49,30.17,30.07,7,1,9,0.00
2013-8-19,85.8,73.0,60.0,72.0,66.0,59.0,98,81,54,30.10,30.00,4,1,7,0.00
2013-8-20,87.0,75.4,64.5,72.0,67.3,63.0,95,78,54,30.08,29.99,7,1,11,0.00
2013-8-21,87.6,77.3,67.7,72.0,68.5,66.0,95,76,53,30.07,29.97,8,2,12,0.00
2013-8-22,86.0,77.1,69.2,75.0,71.0,67.0,93,81,67,30.05,29.99,12,2,15,0.02
2013-8-23,88.1,75.8,66.4,72.0,69.2,66.0,98,81,58,30.09,30.03,8,3,12,0.00
2013-8-24,89.6,76.1,64.3,73.0,69.2,64.0,97,81,57,30.18,30.08,6,1,9,0.00
2013-8-25,91.5,77.3,65.5,72.0,68.2,64.0,94,75,51,30.22,30.12,7,2,10,0.00
2013-8-26,91.4,79.9,68.0,77.0,71.5,64.0,95,77,58,30.14,29.99,6,2,12,0.00
2013-8-27,93.4,82.5,73.6,74.0,70.1,64.0,91,68,43,30.01,29.89,11,3,16,0.00
2013-8-28,98.2,84.4,73.7,76.0,69.8,64.0,82,63,42,29.95,29.90,8,2,12,0.00
2013-8-29,90.5,80.5,72.1,79.0,75.2,70.0,97,85,67,30.00,29.92,7,2,10,0.00
2013-8-30,98.4,84.3,73.3,78.0,75.1,73.0,99,77,46,29.92,29.75,10,2,11,0.00
2013-8-31,95.3,82.5,72.2,80.0,74.6,69.0,93,78,59,29.77,29.69,7,2,9,0.00
2013-9-1,90.4,77.9,69.2,76.0,69.5,62.0,99,78,48,29.82,29.73,6,1,13,0.00
2013-9-2,81.2,70.2,59.5,66.0,60.3,56.0,93,73,48,29.96,29.82,6,1,11,0.00
2013-9-3,81.3,66.0,52.7,63.0,57.9,52.0,98,78,46,30.08,29.96,6,1,9,0.00
2013-9-4,88.4,70.4,54.3,66.0,59.3,54.0,98,72,33,30.14,30.04,6,0,7,0.00
2013-9-5,89.5,74.4,60.2,69.0,63.5,58.0,96,71,45,30.17,30.09,5,1,9,0.00
2013-9-6,86.9,74.5,63.2,68.0,65.1,62.0,97,75,43,30.15,29.99,9,2,12,0.00
2013-9-7,89.9,76.8,64.2,73.0,67.6,63.0,94,75,50,29.99,29.85,10,2,14,0.00
2013-9-8,86.4,77.0,68.6,75.0,71.6,68.0,98,84,68,29.95,29.84,15,2,17,1.91
2013-9-9,94.4,82.2,71.6,77.0,72.4,67.0,98,75,53,29.90,29.82,14,3,19,0.00
2013-9-10,93.3,83.1,71.6,74.0,68.9,65.0,81,63,45,30.01,29.90,11,3,15,0.00
2013-9-11,93.6,81.5,72.2,72.0,68.3,65.0,93,65,42,30.06,29.96,9,2,12,0.09
2013-9-12,83.9,71.6,59.7,71.0,62.1,51.0,98,76,35,30.07,29.97,8,2,13,0.13
2013-9-13,70.5,60.4,51.6,53.0,48.6,41.0,95,68,36,30.16,30.06,10,2,16,0.00
2013-9-14,74.4,59.1,45.8,52.0,47.9,45.0,97,70,37,30.18,30.01,6,1,9,0.00
2013-9-15,70.7,62.0,54.8,65.0,56.1,48.0,96,82,66,30.15,29.95,12,3,16,0.05
2013-9-16,59.1,57.2,55.6,56.0,55.2,54.0,96,92,88,30.17,30.15,6,2,12,0.00
2013-9-20,70.1,56.9,52.5,55.0,47.8,-99.9,97,79,58,29.90,29.85,4,-35,7,0.00
2013-9-21,71.1,58.2,48.9,54.0,50.9,48.0,98,80,46,29.95,29.88,6,1,15,0.00
2013-9-22,74.3,59.5,46.5,55.0,51.1,46.0,98,76,47,30.04,29.93,8,1,10,0.01
2013-9-23,76.2,61.2,48.4,56.0,50.9,47.0,96,72,43,30.04,29.92,9,1,13,0.00
2013-9-24,77.5,64.1,50.8,63.0,56.3,49.0,93,77,57,29.95,29.81,7,2,14,0.00
2013-9-25,80.5,68.1,56.6,63.0,58.6,53.0,88,73,53,29.89,29.82,10,4,14,0.00
2013-9-26,85.5,69.8,56.8,67.0,59.8,54.0,90,72,47,29.99,29.87,6,2,9,0.00
2013-9-27,84.3,69.5,57.6,65.0,57.0,53.0,86,67,39,30.08,29.97,8,1,14,0.00
2013-9-28,82.5,67.5,58.0,69.0,61.5,55.0,96,82,55,30.00,29.88,14,3,23,0.26
2013-9-29,71.9,59.1,49.9,57.0,51.2,45.0,98,79,41,30.07,29.97,8,1,12,0.01
2013-9-30,77.5,62.1,46.4,60.0,53.3,45.0,97,76,47,29.97,29.85,11,2,14,0.00
2013-10-1,80.6,69.2,59.9,69.0,65.2,59.0,98,88,66,29.97,29.88,11,3,14,0.00
2013-10-2,84.4,71.7,65.0,71.0,67.5,65.0,99,88,58,30.03,29.91,5,1,7,0.01
2013-10-3,83.4,69.4,64.8,72.0,64.2,-99.9,98,88,68,29.92,29.78,9,-19,27,0.49
2013-10-4,87.3,74.7,64.8,73.0,68.8,64.0,99,84,55,29.91,29.84,10,2,13,0.01
2013-10-5,73.9,67.8,55.0,71.0,64.8,50.0,96,90,79,29.88,29.77,11,4,16,0.02
2013-10-6,54.5,48.9,45.1,49.0,44.7,40.0,97,86,68,29.85,29.78,16,3,18,0.16
2013-10-7,70.8,57.0,45.5,52.0,48.1,45.0,98,75,44,30.09,29.85,9,2,11,0.00
2013-10-8,77.8,62.2,47.6,54.0,49.3,46.0,95,66,36,30.18,30.08,7,1,12,0.00
2013-10-9,73.9,59.4,47.6,53.0,49.5,46.0,95,72,41,30.18,30.08,7,1,10,0.00
2013-10-10,78.2,62.9,49.7,61.0,54.8,48.0,97,77,49,30.14,29.98,8,1,14,0.00
2013-10-11,79.5,65.7,54.2,62.0,57.1,53.0,98,76,47,30.01,29.85,13,2,18,0.00
2013-10-12,73.2,63.7,52.5,62.0,53.1,41.0,93,71,37,30.19,29.89,8,2,12,0.00
2013-10-13,69.7,55.0,42.9,46.0,39.1,32.0,91,60,28,30.39,30.20,10,1,11,0.00
2013-10-14,66.9,54.2,40.4,49.0,42.1,37.0,91,66,40,30.36,30.04,12,3,16,0.00
2013-10-15,68.9,59.8,48.7,62.0,54.0,43.0,97,82,63,30.03,29.81,11,3,17,0.13
2013-10-16,54.2,49.7,45.1,44.0,42.9,41.0,87,78,68,30.00,29.93,14,3,15,0.00
2013-10-17,62.7,52.4,45.7,47.0,43.6,40.0,96,75,43,29.98,29.86,10,3,17,0.08
2013-10-18,55.7,47.4,41.6,43.0,40.6,37.0,95,79,54,30.03,29.88,8,2,12,0.06
2013-10-19,56.7,46.3,36.6,41.0,37.8,34.0,96,75,42,29.99,29.86,13,4,21,0.03
2013-10-20,71.7,55.1,39.7,45.0,41.0,37.0,92,63,35,29.90,29.75,15,5,21,0.00
2013-10-21,58.6,46.4,34.2,45.0,34.9,27.0,86,66,41,30.03,29.85,8,2,15,0.00
2013-10-22,46.6,38.9,32.4,45.0,36.9,30.0,95,92,80,30.03,29.81,9,2,13,0.19
2013-10-23,46.3,38.3,30.5,37.0,32.3,29.0,95,80,51,30.13,30.00,9,2,12,0.00
2013-10-24,40.8,35.9,26.6,36.0,27.7,24.0,92,74,52,30.40,30.11,5,2,13,0.00
2013-10-25,54.2,39.8,25.2,35.0,27.6,24.0,96,66,34,30.49,30.16,9,3,15,0.00
2013-10-26,58.6,46.7,34.0,39.0,31.3,27.0,86,57,33,30.15,30.00,13,4,19,0.00
2013-10-27,58.3,43.4,29.7,34.0,30.2,27.0,90,63,36,30.13,29.99,9,2,14,0.00
2013-10-28,65.0,49.4,34.2,38.0,33.9,30.0,86,59,33,30.27,30.05,8,2,12,0.00
2013-10-29,54.4,47.9,41.5,53.0,44.2,39.0,98,87,69,30.27,30.08,12,5,14,0.02
2013-10-30,64.7,58.8,53.2,65.0,58.6,53.0,100,99,98,30.07,29.76,10,3,19,0.84
2013-10-31,64.1,56.2,45.8,64.0,55.6,45.0,99,98,95,29.75,29.30,14,4,18,1.32
2013-11-1,54.2,47.2,42.9,45.0,42.7,40.0,98,85,65,29.81,29.53,7,3,19,0.00
2013-11-2,53.4,45.0,36.4,42.0,37.2,32.0,92,76,48,30.17,29.80,7,2,17,0.00
2013-11-3,57.4,44.2,30.4,39.0,34.3,29.0,97,71,43,30.29,30.14,9,2,15,0.00
2013-11-4,57.0,51.0,45.2,46.0,41.7,37.0,77,71,60,30.18,30.07,13,4,23,0.00
2013-11-5,56.2,53.5,51.2,53.0,50.8,46.0,97,90,77,30.22,29.93,11,3,17,0.49
2013-11-6,57.1,45.5,33.3,57.0,43.2,30.0,98,91,78,30.25,29.84,15,5,24,0.47
2013-11-7,51.5,38.5,28.8,39.0,31.0,27.0,95,77,46,30.34,30.26,9,2,16,0.00
2013-11-8,52.6,42.2,28.9,37.0,32.8,27.0,94,71,50,30.35,29.99,16,3,26,0.00
2013-11-9,64.7,53.8,45.6,42.0,38.1,36.0,72,57,35,30.23,29.96,15,5,20,0.00
2013-11-10,52.3,42.1,34.7,36.0,31.4,29.0,85,67,44,30.43,30.24,7,2,10,0.00
2013-11-11,58.7,42.3,26.6,45.0,33.9,21.0,95,74,58,30.57,30.13,16,4,22,0.01
2013-11-12,32.8,24.2,18.1,21.0,17.0,14.0,88,75,55,30.80,30.58,6,2,12,0.00
2013-11-13,44.0,31.1,17.9,22.0,16.9,14.0,89,59,32,30.70,30.24,13,5,21,0.01
2013-11-14,53.9,42.7,32.3,26.0,21.1,18.0,61,44,29,30.24,30.00,15,6,19,0.00
2013-11-15,54.2,44.7,39.2,40.0,33.1,23.0,84,65,46,30.02,29.89,8,4,13,0.00
2013-11-16,62.1,55.2,45.0,57.0,51.5,41.0,91,87,77,29.89,29.55,21,8,32,0.06
2013-11-17,70.5,57.3,45.1,65.0,49.2,-99.9,95,79,60,29.90,29.23,22,-13,39,0.30
2013-11-18,50.5,42.5,30.6,41.0,32.9,27.0,88,71,44,30.30,29.91,14,4,17,0.00
2013-11-19,47.7,37.2,29.8,30.0,28.2,26.0,89,72,46,30.37,30.22,8,3,9,0.00
2013-11-20,41.3,37.5,33.8,39.0,33.3,28.0,94,85,74,30.24,30.02,12,4,16,0.50
2013-11-21,49.2,45.7,41.3,47.0,43.7,39.0,97,92,87,30.24,30.07,6,1,10,0.13
2013-11-22,41.1,34.4,25.7,40.0,32.0,24.0,96,91,83,30.56,30.24,14,3,17,0.01
2013-11-23,25.4,21.6,13.2,24.0,14.9,9.0,93,76,61,30.78,30.55,11,4,19,0.00
2013-11-24,29.0,18.9,9.5,14.0,10.1,7.0,89,70,44,30.81,30.43,9,2,13,0.00
2013-11-25,35.1,30.1,24.4,22.0,17.7,13.0,68,60,49,30.43,30.16,11,4,18,0.00
2013-11-26,36.0,27.9,18.8,27.0,18.9,9.0,85,69,53,30.28,30.11,12,4,18,0.00
2013-11-27,28.6,20.2,13.0,12.0,8.8,7.0,77,62,44,30.38,30.28,11,2,13,0.00
2013-11-28,39.7,28.1,19.2,23.0,17.5,11.0,80,66,50,30.55,30.21,11,3,14,0.00
2013-11-29,40.7,29.1,16.7,26.0,20.6,14.0,91,72,50,30.64,30.40,8,2,11,0.00
2013-11-30,52.7,40.3,30.2,37.0,32.3,25.0,89,74,55,30.39,30.09,10,3,14,0.00
2013-12-1,51.0,40.3,29.6,36.0,32.8,28.0,96,76,54,30.14,29.94,6,1,9,0.00
2013-12-2,46.9,39.5,33.8,40.0,35.3,31.0,96,85,72,29.94,29.67,8,4,11,0.00
2013-12-3,52.2,44.9,38.1,51.0,44.2,37.0,99,97,92,29.68,29.58,6,2,10,0.00
2013-12-4,56.5,47.7,30.9,54.0,46.0,26.0,99,94,78,29.86,29.49,16,4,20,0.01
2013-12-5,30.6,23.0,19.7,26.0,14.9,11.0,84,71,64,30.34,29.86,10,4,20,0.00
2013-12-6,19.6,15.7,10.7,12.0,7.2,4.0,77,69,59,30.65,30.33,9,3,14,0.00
2013-12-7,21.5,13.3,5.9,7.0,4.3,2.0,85,69,44,30.77,30.56,11,2,16,0.00
2013-12-8,24.7,21.2,15.5,23.0,17.0,7.0,94,84,69,30.53,30.04,16,6,18,0.00
2013-12-9,24.0,17.6,9.5,21.0,11.6,4.0,88,77,67,30.32,30.07,14,4,18,0.00
2013-12-10,29.4,19.4,8.1,15.0,9.1,3.0,81,65,50,30.34,30.17,14,4,25,0.00
2013-12-11,25.2,16.9,3.2,19.0,7.8,-4.0,81,68,46,30.68,30.29,11,3,17,0.00
2013-12-12,37.4,20.4,2.7,18.0,8.7,-3.0,81,63,44,30.66,30.25,12,4,18,0.00
2013-12-13,37.3,30.3,23.8,31.0,23.1,14.0,97,76,54,30.25,30.00,9,3,13,0.00
2013-12-14,31.6,27.3,20.3,31.0,23.4,-99.9,97,91,85,30.14,29.91,6,-25,6,0.00
2013-12-15,23.8,19.1,14.9,19.0,15.3,12.0,90,85,74,30.18,30.09,4,0,6,0.00
2013-12-16,23.9,20.0,16.3,22.0,17.7,14.0,95,90,86,30.16,30.04,7,2,9,0.00
2013-12-17,38.5,28.0,20.6,31.0,21.8,14.0,95,79,52,30.26,30.14,11,2,18,0.08
2013-12-18,43.2,33.2,21.7,33.0,22.4,14.0,76,65,47,30.25,29.88,16,5,23,0.10
2013-12-19,48.8,44.2,38.9,45.0,39.2,32.0,92,82,72,29.89,29.74,12,4,17,0.00
2013-12-20,48.6,38.2,28.7,48.0,37.4,27.0,98,97,92,29.87,29.70,8,3,13,0.09
2013-12-21,32.1,29.4,27.8,31.0,28.3,27.0,97,95,94,29.88,29.62,8,3,9,0.00
2013-12-22,32.1,28.0,17.8,32.0,26.6,15.0,98,94,88,30.29,29.64,4,2,11,0.00
2013-12-23,19.0,11.8,4.0,16.0,7.8,-1.0,90,84,76,30.61,30.29,5,2,10,0.00
2013-12-24,20.8,9.7,-2.0,16.0,4.2,-6.0,83,78,73,30.66,30.37,7,2,11,0.00
2013-12-25,31.3,27.0,21.0,29.0,24.0,15.0,95,88,77,30.36,30.21,10,4,14,0.00
2013-12-26,40.0,32.2,22.4,34.0,27.4,19.0,89,82,75,30.34,30.20,12,4,18,0.18
2013-12-27,48.0,39.1,30.6,37.0,32.3,29.0,93,78,64,30.34,30.18,10,4,14,0.09
2013-12-28,54.7,44.1,35.9,38.0,33.5,31.0,83,67,48,30.18,29.87,11,5,17,0.00
2013-12-29,40.2,23.1,6.4,31.0,17.6,-2.0,92,80,66,30.32,29.84,13,5,22,0.00
2013-12-30,19.8,10.2,0.4,10.0,1.3,-4.0,83,68,50,30.40,30.22,6,1,9,0.00
2013-12-31,31.9,22.6,13.7,23.0,16.0,10.0,88,76,62,30.42,30.19,10,3,12,0.00
2014-1-1,25.4,21.1,15.1,21.0,17.8,13.0,93,87,81,30.21,30.13,10,5,15,0.00
2014-1-2,17.8,11.7,0.9,12.0,6.9,-2.0,90,81,69,30.51,30.18,11,4,17,0.00